Overview Statistics Trail Chart Weather Telemetry Raw packets
 

This is the latest recevied weather packets stored in our database for station/object PY5AL-13. If no packets are shown the sender has not sent any weather packets the latest 10 day(s).

<< 2 3 4 5 6 7 8 >>
Time Temp. Humidity Pressure Rain* Wind** Luminosity Snow
1777754054 25.56° C 60% 1018.3 hPa - - - -
1777752854 25.56° C 62% 1017.4 hPa - - - -
1777751654 25.56° C 61% 1016.9 hPa - - - -
1777750469 24.44° C 63% 1016.4 hPa - - - -
1777749254 25° C 62% 1015.8 hPa - - - -
1777748054 25° C 60% 1015.7 hPa - - - -
1777746854 25° C 59% 1015.7 hPa - - - -
1777745654 25° C 57% 1015.6 hPa - - - -
1777744454 24.44° C 61% 1014.7 hPa - - - -
1777743268 24.44° C 61% 1014.1 hPa - - - -
1777742054 23.89° C 63% 1013.7 hPa - - - -
1777740854 24.44° C 61% 1014.3 hPa - - - -
1777739654 24.44° C 62% 1014.5 hPa - - - -
1777738454 24.44° C 65% 1015.3 hPa - - - -
1777737254 24.44° C 66% 1016.2 hPa - - - -
1777736054 24.44° C 65% 1016.8 hPa - - - -
1777734855 24.44° C 65% 1017.9 hPa - - - -
1777733654 24.44° C 68% 1018.3 hPa - - - -
1777732458 25° C 66% 1019 hPa - - - -
1777731254 24.44° C 66% 1019.5 hPa - - - -
1777730068 24.44° C 69% 1019.7 hPa - - - -
1777728855 25° C 66% 1019.9 hPa - - - -
1777727655 25.56° C 66% 1020 hPa - - - -
1777726455 25.56° C 68% 1019.8 hPa - - - -
1777725255 25.56° C 70% 1019.9 hPa - - - -

* Rain since midnight (hover to see other rain measurements)
** Current wind speed in m/s (hover to see current wind gust speed)